默认 日期 大小 文件数 浏览量 最新下载 xml
vol.2磁力链接相关资源由用户搜索指令自动获取,结果来源于网络,本站不存储任何资料,亦不承担任何责任,请于24小时内删除,搜索到47313个磁力,显示前4000条数据,用时89ms。
    {"DarkAngel zobacz.gif": 1312455, "DarkAngel Zaprasza.url": 128, "ZOBACZ KONIECZNIE!!.png": 75779, "Torrent pobrany z Polskie-Torrenty.com.txt": 44, "Guardians.of.the.Galaxy.Vol. 2.2017.PLDUB.NEW.HDCAM.x264.AC3-FOX.mkv": 2206340057}
创建时间: 2018-11-02 10:21:19 大小:2.06 GB 文件数量:5 热度:19 最近下载:2025-08-17 18:05:01
    ... - sticks picks vol 2 disk 1.log": 9608}, "disk 2": {"disk 2.ffp": 550 ... , "bob dylan - sticks picks vol 2 disk 2.log": 10924}, "sticksv2.txt": 2034 ... Sticks Picks Vol 2.ffp": 513, "Bob Dylan Sticks Picks Vol 2.md5": 1593 ...
创建时间: 2018-11-02 11:50:34 大小:1.02 GB 文件数量:28 热度:19 最近下载:2025-07-29 07:29:04
    ... .txt": 46, "Drumdrops.In.Dub.Vol.2.MULTiTRACK.DVDR.D1-DYNAMiCS": {"65 ... Map.mid": 4747}, "69 Bpm 2": {"Audio Files": {"HAT.aif": ... Map.mid": 2155}, "82 Bpm 2": {"Audio Files": {"HAT.aif": ... "Desktop DB": 1024, "Desktop DF": 2, "Previews MP3": {"65 bpm Horseman ...
创建时间: 2018-11-02 11:52:03 大小:4.03 GB 文件数量:213 热度:17 最近下载:2025-02-02 10:37:02
    {"scr.jpg": 859684, "Roy Stuart - Glimpse-Vol 2.avi": 1257160704}
创建时间: 2018-11-02 12:11:06 大小:1.17 GB 文件数量:2 热度:48 最近下载:2025-08-05 20:42:08
    {"Cover.jpg": 229340, "05. On The Road.mp3": 12510923, "09. To Wentworth.mp3": 9526696, "14. Hand Surgery.mp3": 10050190, "15. Setting Sail.mp3": 20643365, "03. The Summoning.mp3": 8306257, "11. Tracking Jamie.mp3": 11053296, "07. The Devil's Mark.mp3": ...
创建时间: 2018-11-02 12:14:06 大小:152.7 MB 文件数量:16 热度:18 最近下载:2025-04-16 21:48:03
    {"scene1.mp4": 462669559, "scene2.mp4": 491413480, "scene3.mp4": 369619052, "scene4.mp4": 372504221, "scene5.mp4": 489311716, "scene6.mp4": 271762662}
创建时间: 2018-11-02 12:19:48 大小:2.29 GB 文件数量:6 热度:28 最近下载:2025-08-05 04:02:17
    {"vol 2.txt": 4062, "MiyaGi - Сын.mp3": ... , "i-love-russian-hip-hop 2.jpg": 18461, "DragN - Дай знать ...
创建时间: 2018-11-02 12:47:40 大小:382.79 MB 文件数量:47 热度:14 最近下载:2025-01-16 03:45:01
    ... ] 聖闘士星矢Ω VOL.2 R版 (iso+mds).part1 ... ] 聖闘士星矢Ω VOL.2 R版 (iso+mds).part2 ... ] 聖闘士星矢Ω VOL.2 R版 (iso+mds).part3 ... ] 聖闘士星矢Ω VOL.2 R版 (iso+mds).part4 ...
创建时间: 2018-11-02 12:50:36 大小:6.45 GB 文件数量:4 热度:42 最近下载:2025-08-19 05:28:01
    {"Downloaded From 1337x.to.txt": 203, "[18+] Nymphomaniac Vol. 2 (2013) 720p English Uncut x264 1GB.mp4": 1105171364}
创建时间: 2018-11-02 12:52:39 大小:1.03 GB 文件数量:2 热度:23 最近下载:2025-08-08 16:51:03
    {"WPCS-002.mp4": 1616761173, "WPCS_002.jpg": 75965, "WPCS-002 thumb.JPG": 277354}
创建时间: 2018-11-02 13:11:51 大小:1.51 GB 文件数量:3 热度:54 最近下载:2025-08-07 11:28:02
    {"sample.avi": 7059456, "Guardians.of.the.Galaxy.Vol.2.2017.IMAX.BDRip.XviD.AC3-EVO.avi": 1528306382, "Guardians.of.the.Galaxy.Vol.2.2017.IMAX.BDRip.XviD.AC3-EVO.nfo": 755}
创建时间: 2018-11-02 13:28:22 大小:1.43 GB 文件数量:3 热度:15 最近下载:2024-06-16 14:52:02
    ... 2K17 (Radio Edit).mp3": 5561170, "2. Sia - Move Your Body (Alan ... -Bop).mp3": 8702107, "DJ Valdi, Vol. 2 (El DJ Del Hormiguero) (2017 ...
创建时间: 2018-11-02 13:28:57 大小:487.46 MB 文件数量:63 热度:13 最近下载:2025-03-20 01:27:02
    {"nekopara-vol-2.7z.001": 331076602, "nekopara-vol-2.7z.002": 105907328}
创建时间: 2018-11-02 13:42:27 大小:416.74 MB 文件数量:2 热度:37 最近下载:2025-01-05 02:48:01
    {"cover.jpg": 31934, "06 - Stomp.flac": 54648661, "04 - You & I.flac": 39957716, "09 - Wanna Be.flac": 51444636, "03 - Touch Me Now.flac": 47242920, "08 - Just As Long.flac": 45696497, "07 - Somebody's Dance.flac": 45935246, "10 - Land of Confusion.flac": ...
创建时间: 2018-11-02 13:50:26 大小:465.9 MB 文件数量:11 热度:14 最近下载:2025-01-02 22:55:04
    ... , "foldout 1.jpg": 2916287, "foldout 2.jpg": 1502387, "foldout 3.jpg ... .jpg": 44018, "100% Handmade Music Vol. 2.cue": 3088, "05 Jacob do ... , "Various Artists - 100% Handmade Music Vol. 2.log": 15090, "02 David Grisman ...
创建时间: 2018-11-02 13:51:07 大小:288.49 MB 文件数量:24 热度:15 最近下载:2025-10-08 15:57:01
    {"front.jpg": 245457, "auCDtect.log": 8798, "13. IRA - Help Me Find (Radio Edit).flac": 26699184, "25. Tucandeo - Awake (JP Bates Edit).flac": 29639479, "02. A.R.D.I - Sunflowers (Radio Edit).flac": 31168738, "23. Feel - Breath of Life (Radio Edit).flac": ...
创建时间: 2018-11-02 13:51:38 大小:871.39 MB 文件数量:32 热度:13 最近下载:2025-01-02 22:58:06
    {"italo.piks.jpg": 11514, "19. Prodomo - Rebel.mp3": 10110043, "39. Mflex - Drenched.mp3": 14494551, "57. Xain - Oneironauts.mp3": 11301236, "31. Solar Burst - Voyage.mp3": 10001389, "45. Galaxion - Around You.mp3": 11015043, "24. Alphawave - Laserwaves. ...
创建时间: 2018-11-02 13:55:15 大小:739.92 MB 文件数量:61 热度:14 最近下载:2023-04-07 05:40:02
    {"20_JIS_-_Plan_B.mp3": 20987796, "09_Oxi_-_Quasi_Star.mp3": 17403804, "13_Tavi_-_Space_Sail.mp3": 22743234, "14_Trinodia_-_Procyon.mp3": 21711922, "07_Lucid_Rainbow_-_Ebola.mp3": 18180173, "18_Screwloose_-_Sunspots.mp3": 18751732, "08_Mindsphere_- ...
创建时间: 2018-11-02 14:02:11 大小:383.63 MB 文件数量:20 热度:23 最近下载:2025-08-07 15:03:04
    ... 305006, "PL_CS2HS_Mouse Click 2.wav": 305006, "PL_CS2HS_Mouse ... 419534, "PL_CS2HS_Mouse Wheel 2.wav": 317732, "PL_CS2HS_Typing ... 3269990, "PL_CS2HS_Typing Loop 2.wav": 3269990, "PL_CS2HS_Typing ... , "PL_CS2HS_Mouse Double Click 2.wav": 317732}, "PL_CS2HS_Demo_1 ...
创建时间: 2018-11-02 14:02:47 大小:507.38 MB 文件数量:139 热度:19 最近下载:2025-01-13 02:31:01
    {"cover.jpg": 85010, "02. Adeh - Unconscious.mp3": 11067392, "10. Eleventh Sun - Fear.mp3": 12826624, "16. Acid Lab - Hyperion.mp3": 12771328, "27. Echonic - Glow Worm.mp3": 12752896, "26. Budoka - Strange World.mp3": 12081152, "21. Raw Conscience - The ...
创建时间: 2018-11-02 14:04:33 大小:400.03 MB 文件数量:33 热度:14 最近下载:2025-04-03 02:25:02